Flag for Congo Weather past 2 weeks in Pointe-Noire, Congo

Now
81 °F

Passing clouds.


Feels Like: 87 °F
Forecast: 77 / 86 °F
Wind: 7 mph from Southeast

Location: Pointe Airport-Noire

Current Time: May 22, 2015 at 10:12:57 PM

Latest Report: May 22, 2015 at 9:00 PM


Visibility: N/A

Pressure: 29.95 "Hg

Humidity: 89%

Dew point: 77 °F

Location of Pointe-NoireLocation

Historic Weather in Pointe-Noire — Graph

°F

Pointe-Noire temperature yesterday

Maximum temperature yesterday: 86 °F (at 12:00 PM)
Minimum temperature yesterday: 79 °F (at 5:00 AM)
Average temperature yesterday: 83 °F

Past Weeks' High & Low Weather Summary

 TemperatureHumidityPressure
High90 °F (May 8, 2:00 PM)100% (May 8, 5:00 AM)29.98 "Hg (May 8, 5:00 AM)
Low75 °F (May 16, 1:00 AM)22% (May 17, 2:00 AM)29.74 "Hg (May 14, 4:00 PM)
Average82 °F86%29.88 "Hg
* Reported May 7 9:00 PM — May 22 9:00 PM, Pointe-Noire, Weather by CustomWeather, © 2015

Note: Actual official high and low records may vary slightly from our data, if they occured in-between our weather recording intervals... More about our weather records

Advertising

Pointe-Noire weather history for previous 24 hours

 ConditionsComfort  
Time TempWeatherWind HumidityBarometerVisibility
9:00 PM
Fri, May 22
81 °FPassing clouds.7 mph89%29.95 "HgN/A
8:00 PM81 °FPassing clouds.9 mph89%29.92 "HgN/A
7:00 PM82 °FPassing clouds.8 mph79%29.89 "HgN/A
6:00 PM82 °FPartly sunny.14 mph79%29.89 "HgN/A
5:00 PM84 °FPassing clouds.13 mph74%29.86 "HgN/A
4:00 PM84 °FPartly sunny.10 mph74%29.86 "HgN/A
3:00 PM84 °FPartly sunny.12 mph79%29.89 "HgN/A
2:00 PM86 °FScattered clouds.14 mph70%29.89 "HgN/A
1:00 PM86 °FPartly sunny.14 mph75%29.92 "HgN/A
12:00 PM86 °FPartly sunny.13 mph70%29.92 "HgN/A
11:00 AM86 °FScattered clouds.13 mph75%29.98 "HgN/A
10:00 AM84 °FScattered clouds.9 mph79%29.95 "HgN/A
9:00 AM82 °FScattered clouds.9 mph84%29.95 "Hg5 mi
8:00 AM82 °FScattered clouds.8 mph84%29.95 "Hg4 mi
7:00 AM79 °FDrizzle. Fog.5 mph94%29.89 "Hg2 mi
6:00 AM79 °FFog.5 mph94%29.89 "Hg2 mi
5:00 AM81 °FPassing clouds.5 mph89%29.89 "Hg5 mi
4:00 AM81 °FPartly cloudy.6 mph94%29.89 "Hg5 mi
3:00 AM82 °FPartly cloudy.8 mph89%29.89 "Hg5 mi
2:00 AM82 °FPassing clouds.6 mph89%29.89 "Hg5 mi
1:00 AM82 °FPassing clouds.6 mph89%29.92 "Hg5 mi
12:00 AM82 °FPassing clouds.6 mph89%29.92 "Hg5 mi
11:00 PM
Thu, May 21
82 °FPartly cloudy.7 mph89%29.92 "Hg5 mi
10:00 PM82 °FPartly cloudy.7 mph89%29.92 "Hg5 mi
Weather by CustomWeather, © 2015

See weather overviewHow to use our weather pages